[[{"header":{"parameterUnit":"m.s-1","parameterCategory":1,"la1":30.2991,"la2":30.254,"lo1":-89.0895,"lo2":-89.0444,"dy":0.0017,"dx":0.0017,"nx":28,"ny":28,"refTime":"2024-05-11T09:00:00:Z","depth":0,"parameterNumber":2,"parameterNumberName":"U-component_of_WINDS"},"data":[0,0,0,0,0,0,0,0,0,0,0,0,0,0,0,0,0,0,0,0,0,0,0,0,0,0,0,0,0,0,0,0,0,0,0,0,0,0,0,0,0,0,0,0,0,0,0,0,0,0,0,0,0,0,0,0,0,0,-3.9582,-3.9583,0,-3.967,-3.9671,-3.9672,-3.955,-3.9546,-3.9542,-3.9538,-3.9625,-3.9631,-3.9637,0,0,0,0,0,0,0,0,0,0,0,0,0,-3.9307,-3.9312,-3.9582,-3.9583,-3.9584,-3.9669,-3.9671,-3.9672,-3.9551,-3.9546,-3.9541,-3.9536,-3.9622,-3.963,-3.9638,0,0,0,0,0,0,0,0,0,0,0,0,0,-3.9413,-3.9314,-3.9582,-3.9534,-3.9531,-3.9669,-3.9671,-3.9672,-3.9552,-3.9546,-3.9539,-3.9533,-3.962,-3.9629,-3.9639,-3.9827,0,0,-3.9668,-3.9672,0,0,0,0,0,0,0,0,-3.9408,-3.9424,-3.954,-3.9538,-3.9534,-3.9592,-3.9605,-3.9724,-3.9554,-3.9544,-3.9538,-3.953,-3.9619,-3.9628,-3.9659,-3.9831,-3.9834,-3.9668,-3.9674,-3.9678,-3.9681,0,0,0,0,0,0,0,-3.94,-3.9419,-3.9616,-3.9542,-3.9539,-3.9507,-3.9515,-3.9627,-3.9617,-3.9544,-3.9536,-3.9548,-3.9616,-3.965,-3.966,-3.9836,-3.9668,-3.9677,-3.9682,-3.9686,-4.0164,-4.0171,0,0,0,0,0,0,-3.9399,-3.9414,-3.9614,-3.9619,-3.9454,-3.9518,-3.9527,-3.958,-3.9615,-3.9614,-3.9553,-3.9542,-3.9637,-3.9649,-3.9662,-3.9883,-3.9678,-3.9687,-3.9693,-4.0157,-4.0166,-4.0173,0,0,0,0,0,0,-3.9394,-3.9418,-3.961,-3.9514,-3.9536,-3.9529,-3.9591,-3.9585,-3.9619,-3.9622,-3.9619,-3.959,-3.9632,-3.9649,-3.9786,-3.9885,-3.9691,-3.97,-4.0149,-4.016,-4.017,-4.0328,0,0,0,0,0,0,-3.9386,-3.9417,-3.9489,-3.9517,-3.9542,-3.9735,-3.9597,-3.9592,-3.9636,-3.9622,-3.9656,-3.9655,-3.9628,-3.9773,-3.9796,-3.9894,-3.9707,-4.014,-4.0154,-4.0166,-4.0314,-4.0343,-4.0368,0,0,0,0,0,-3.9377,-3.953,-3.9494,-3.9518,-3.9633,-3.9741,-3.9755,-3.9722,-3.9645,-3.9716,-3.9718,-3.9654,-3.9871,-3.9788,-3.9813,-3.9916,-4.0134,-4.015,-4.0165,-4.0302,-4.0337,-4.0367,0,0,0,0,0,0,-3.9514,-3.9533,-3.9493,-3.966,-3.97,-3.972,-3.981,-3.976,-3.9822,-3.9806,-3.9762,-3.977,-3.9917,-3.993,-3.9838,-4.0098,-3.9989,-4.0011,-4.0085,-4.0118,-4.0144,-4.0138,-3.9715,0,0,0,0,0,-3.9563,-3.9651,-3.9662,-3.9809,-3.9831,-3.9817,-3.9863,-3.9834,-3.9873,-3.9889,-3.9901,-3.994,-4.0016,-4.0068,-4.0139,-4.0315,-4.032,-4.0398,-4.0425,-4.0447,-4.0466,-4.0558,-4.0593,-4.0225,-4.0225,-4.0225,0,0,-3.9667,-3.9688,-3.9746,-3.9837,-3.9864,-3.9954,-3.9832,-3.9933,-3.9998,-3.9904,-4.0034,-4.0044,-4.0085,-4.0243,-4.0313,-4.0258,-4.0568,-4.0467,-4.0484,-4.0491,-4.0578,-4.0613,-4.0644,-4.0236,-4.0234,-4.0232,0,0,-3.9901,-3.9927,-4.0051,-4.0081,-4.0124,-4.0114,-4.0144,-4.0172,-4.0175,-4.0305,-4.0236,-4.0313,-4.0446,-4.0478,-4.0511,-4.0757,-4.0699,-4.0781,-4.092,-4.1011,-4.104,-4.1065,-4.1152,-4.1183,-4.08,-4.08,-4.0801,0,-4.0024,-4.0158,-4.012,-4.0226,-4.0267,-4.0187,-4.0311,-4.0341,-4.0405,-4.0435,-4.0373,-4.0538,-4.056,-4.0723,-4.0783,-4.0813,-4.0845,-4.0777,-4.1039,-4.1064,-4.1087,-4.1169,-4.1202,-4.081,-4.0809,-4.0808,-4.0807,0,-4.0306,-4.04,-4.0494,-4.0559,-4.0611,-4.0725,-4.0704,-4.0761,-4.0727,-4.0724,-4.0856,-4.088,-4.0953,-4.099,-4.0958,-4.1149,-4.1113,-4.1046,-4.0935,-4.1133,-4.1209,-4.124,-4.0824,-4.082,-4.0817,-4.0815,0,0,-4.0628,-4.0671,-4.0706,-4.0734,-4.0775,-4.0846,-4.0957,-4.1029,-4.1078,-4.1125,-4.1215,-4.1329,-4.1267,-4.1305,-4.1276,-4.1356,-4.1548,-4.1279,-4.1279,-4.1327,-4.1757,-4.1807,-4.1844,-4.151,-4.1516,-4.1521,-4.1753,0,-4.0861,-4.1053,-4.1022,-4.1207,-4.1292,-4.1216,-4.1312,-4.1347,-4.1346,-4.1417,-4.1415,-4.1497,-4.1409,-4.1432,-4.1508,-4.1509,-4.1633,-4.1491,-4.1592,-4.1596,-4.1584,-4.1884,-4.1937,-4.2155,-4.1783,-4.1788,-4.1792,0,-4.1159,-4.1217,-4.1411,-4.1438,-4.1472,-4.1559,-4.1622,-4.1692,-4.173,-4.1723,-4.1766,-4.1722,-4.183,-4.1718,-4.1865,-4.1769,-4.1809,-4.1815,-4.1823,-4.183,-4.1706,-4.1898,-4.2224,-4.2257,-4.1838,-4.1835,-4.1831,0,-4.1373,-4.15,-4.1632,-4.1658,-4.1694,-4.1756,-4.1773,-4.1805,-4.185,-4.1905,-4.1933,-4.2,-4.2037,-4.2089,-4.2063,-4.1984,-4.2215,-4.2101,-4.2212,-4.2213,-4.2263,-4.226,-4.2599,-4.2291,-4.229,-4.229,-4.2289,0,-4.1636,-4.1757,-4.1729,-4.181,-4.1943,-4.1906,-4.2038,-4.2046,-4.2074,-4.2154,-4.2092,-4.2168,-4.2131,-4.2204,-4.2184,-4.2309,-4.2326,-4.2323,-4.2316,-4.2328,-4.2328,-4.2352,-4.2336,-4.2298,-4.2296,-4.2295,-4.2293,0,-4.1898,-4.1884,-4.2023,-4.2045,-4.2053,-4.215,-4.2168,-4.2243,-4.2237,-4.2339,-4.2361,-4.2352,-4.2434,-4.2414,-4.2504,-4.2491,-4.2648,-4.2622,-4.2635,-4.2629,-4.274,-4.2729,-4.3106,-4.3152,-4.2815,-4.2818,-4.2821,0,-4.2066,-4.2158,-4.219,-4.224,-4.2262,-4.2343,-4.2389,-4.2355,-4.2406,-4.2455,-4.2524,-4.2601,-4.2661,-4.2797,-4.2797,-4.2865,-4.284,-4.2967,-4.285,-4.2859,-4.2841,-4.2835,-4.2844,-4.2991,-4.2994,-4.2998,-4.3,0,-4.2366,-4.2354,-4.2424,-4.2491,-4.2548,-4.2599,-4.2644,-4.2687,-4.2657,-4.2717,-4.2801,-4.2848,-4.294,-4.3017,-4.3079,-4.3095,-4.3043,-4.3037,-4.3066,-4.3079,-4.3082,-4.3081,-4.2698,-4.3029,-4.3026,-4.3024,-4.3022,-4.3021,-4.2585,-4.2662,-4.2697,-4.2776,-4.2806,-4.285,-4.2921,-4.2924,-4.2994,-4.3067,-4.3043,-4.3139,-4.3173,-4.3251,-4.3275,-4.3349,-4.3301,-4.3343,-4.3353,-4.3364,-4.3377,-4.3072,-4.336,-4.3359,-4.3359,-4.3358,-4.3357,0,-4.288,-4.2899,-4.2972,-4.3037,-4.3099,-4.3045,-4.3092,-4.3147,-4.3232,-4.3269,-4.3329,-4.3425,-4.35,-4.3506,-4.3575,-4.3633,-4.3611,-4.3652,-4.3647,-4.3651,-4.3417,-4.3385,-4.3669,-4.3669,-4.3669,-4.3669,-4.3669,-4.3669,-4.3041,-4.3169,-4.3161,-4.3303,-4.332,-4.3414,-4.3445,-4.3484,-4.3513,-4.3624,-4.3685,-4.3689,-4.3713,-4.3784,-4.3849,-4.3849,-4.3877,-4.3928,-4.3918,-4.3699,-4.3668,-4.3638,-4.3608,-4.3934,-4.3935,-4.4146,-4.4148,-4.4149]},{"header":{"parameterUnit":"m.s-1","parameterCategory":1,"la1":30.2991,"la2":30.254,"lo1":-89.0895,"lo2":-89.0444,"dy":0.0017,"dx":0.0017,"nx":28,"ny":28,"refTime":"2024-05-11T09:00:00:Z","depth":0,"parameterNumber":3,"parameterNumberName":"V-component_of_WINDS"},"data":[0,0,0,0,0,0,0,0,0,0,0,0,0,0,0,0,0,0,0,0,0,0,0,0,0,0,0,0,0,0,0,0,0,0,0,0,0,0,0,0,0,0,0,0,0,0,0,0,0,0,0,0,0,0,0,0,0,0,-1.4528,-1.4529,0,-1.4588,-1.4588,-1.4589,-1.4632,-1.4632,-1.4633,-1.4633,-1.4694,-1.4695,-1.4696,0,0,0,0,0,0,0,0,0,0,0,0,0,-1.4449,-1.445,-1.4528,-1.4529,-1.4529,-1.4587,-1.4588,-1.4589,-1.4632,-1.4632,-1.4633,-1.4633,-1.4693,-1.4695,-1.4696,0,0,0,0,0,0,0,0,0,0,0,0,0,-1.4493,-1.445,-1.4528,-1.4558,-1.4561,-1.4587,-1.4588,-1.4589,-1.4632,-1.4632,-1.4633,-1.4633,-1.4693,-1.4695,-1.4697,-1.4698,0,0,-1.4702,-1.4703,0,0,0,0,0,0,0,0,-1.4491,-1.4496,-1.4553,-1.4556,-1.456,-1.4603,-1.4583,-1.4626,-1.4632,-1.4605,-1.4633,-1.4634,-1.4663,-1.4667,-1.4677,-1.47,-1.4703,-1.4703,-1.4704,-1.4705,-1.4705,0,0,0,0,0,0,0,-1.4488,-1.4494,-1.4552,-1.4553,-1.4558,-1.4568,-1.4574,-1.4591,-1.463,-1.4607,-1.4611,-1.4617,-1.4665,-1.4676,-1.4679,-1.4704,-1.4703,-1.4704,-1.4705,-1.4706,-1.4728,-1.4727,0,0,0,0,0,0,-1.448,-1.4491,-1.455,-1.4553,-1.4526,-1.4568,-1.4576,-1.4588,-1.463,-1.4637,-1.4617,-1.4619,-1.4672,-1.4677,-1.4681,-1.4684,-1.4705,-1.4706,-1.4708,-1.4728,-1.4728,-1.4727,0,0,0,0,0,0,-1.4478,-1.4485,-1.4547,-1.4523,-1.4532,-1.4569,-1.4583,-1.4589,-1.46,-1.4637,-1.4644,-1.462,-1.4673,-1.4679,-1.4693,-1.4686,-1.4707,-1.4709,-1.4729,-1.4728,-1.4727,-1.4689,0,0,0,0,0,0,-1.4476,-1.4484,-1.4485,-1.4523,-1.4533,-1.4558,-1.4582,-1.459,-1.4603,-1.4607,-1.4642,-1.4649,-1.4673,-1.469,-1.4695,-1.4689,-1.4711,-1.473,-1.4729,-1.4728,-1.4691,-1.4687,-1.4683,0,0,0,0,0,-1.4473,-1.4473,-1.4485,-1.4492,-1.4536,-1.4558,-1.4563,-1.4592,-1.4603,-1.4604,-1.4627,-1.4648,-1.4686,-1.4691,-1.4697,-1.4692,-1.473,-1.4729,-1.4728,-1.4693,-1.4688,-1.4683,0,0,0,0,0,0,-1.4435,-1.4478,-1.4493,-1.4505,-1.4527,-1.4565,-1.4568,-1.4586,-1.4606,-1.4608,-1.4642,-1.465,-1.466,-1.4678,-1.4682,-1.4694,-1.4711,-1.4711,-1.4682,-1.4678,-1.4674,-1.4669,-1.4712,0,0,0,0,0,-1.4427,-1.4442,-1.448,-1.4487,-1.4497,-1.453,-1.4541,-1.456,-1.4585,-1.4594,-1.4619,-1.4642,-1.4658,-1.4669,-1.4687,-1.4694,-1.4701,-1.4693,-1.4689,-1.4686,-1.4685,-1.4688,-1.4684,-1.4723,-1.4723,-1.4723,0,0,-1.4413,-1.4439,-1.4446,-1.448,-1.4499,-1.4512,-1.4538,-1.4552,-1.4561,-1.4597,-1.4611,-1.4629,-1.4656,-1.4666,-1.4671,-1.4681,-1.4676,-1.4684,-1.4681,-1.4683,-1.4686,-1.4682,-1.4679,-1.4722,-1.4722,-1.4722,0,0,-1.4394,-1.4415,-1.4423,-1.4441,-1.447,-1.4491,-1.4493,-1.4527,-1.4541,-1.4555,-1.4581,-1.4593,-1.4622,-1.464,-1.4652,-1.4636,-1.4655,-1.4641,-1.4621,-1.4623,-1.462,-1.4617,-1.461,-1.4607,-1.464,-1.464,-1.464,0,-1.4373,-1.4394,-1.4424,-1.4435,-1.4448,-1.448,-1.4486,-1.4503,-1.4536,-1.4544,-1.4554,-1.4589,-1.461,-1.4623,-1.4618,-1.4628,-1.463,-1.4637,-1.4618,-1.4616,-1.4614,-1.4607,-1.4604,-1.4638,-1.4638,-1.4639,-1.4639,0,-1.4366,-1.438,-1.4382,-1.4412,-1.4425,-1.4434,-1.4464,-1.4474,-1.4491,-1.4511,-1.4524,-1.455,-1.4572,-1.4577,-1.4595,-1.4592,-1.4596,-1.4612,-1.4629,-1.4607,-1.4601,-1.4599,-1.4635,-1.4636,-1.4637,-1.4637,0,0,-1.4326,-1.437,-1.437,-1.4383,-1.4416,-1.4427,-1.4436,-1.4458,-1.4464,-1.4485,-1.4493,-1.4515,-1.4529,-1.4543,-1.4563,-1.4565,-1.4548,-1.458,-1.4581,-1.4572,-1.4543,-1.453,-1.4527,-1.456,-1.456,-1.456,-1.454,0,-1.4311,-1.4329,-1.4355,-1.4364,-1.4377,-1.4405,-1.4413,-1.4433,-1.4451,-1.4464,-1.4484,-1.4498,-1.4516,-1.4525,-1.4528,-1.4549,-1.4542,-1.4551,-1.4566,-1.4567,-1.4558,-1.4524,-1.4512,-1.4492,-1.4538,-1.4538,-1.4538,0,-1.4296,-1.4314,-1.4324,-1.4353,-1.436,-1.4366,-1.4386,-1.4398,-1.4421,-1.4434,-1.4448,-1.4469,-1.4479,-1.4494,-1.4507,-1.4512,-1.452,-1.4531,-1.4531,-1.4533,-1.455,-1.4524,-1.4487,-1.4483,-1.4534,-1.4535,-1.4535,0,-1.4264,-1.4291,-1.43,-1.431,-1.4345,-1.4348,-1.4362,-1.4386,-1.4396,-1.4413,-1.442,-1.4438,-1.4448,-1.4461,-1.4486,-1.4495,-1.4495,-1.4514,-1.4505,-1.4504,-1.4503,-1.4503,-1.4465,-1.451,-1.451,-1.451,-1.451,0,-1.4244,-1.4249,-1.4285,-1.4291,-1.4296,-1.4325,-1.4329,-1.4346,-1.4366,-1.4374,-1.44,-1.4407,-1.444,-1.4451,-1.447,-1.4476,-1.4481,-1.4491,-1.4496,-1.4488,-1.4486,-1.4493,-1.4495,-1.4509,-1.4509,-1.4509,-1.451,0,-1.4209,-1.4234,-1.4246,-1.4276,-1.4284,-1.4286,-1.4312,-1.4318,-1.4337,-1.4347,-1.4351,-1.438,-1.4393,-1.4419,-1.444,-1.4453,-1.4455,-1.4464,-1.4447,-1.445,-1.4439,-1.4439,-1.4404,-1.44,-1.4447,-1.4447,-1.4446,0,-1.4195,-1.4199,-1.4229,-1.4236,-1.4249,-1.4261,-1.4271,-1.4298,-1.4307,-1.4331,-1.4333,-1.4348,-1.4362,-1.4382,-1.4405,-1.442,-1.4429,-1.4416,-1.4432,-1.4423,-1.4427,-1.4426,-1.4426,-1.4412,-1.4411,-1.4411,-1.441,0,-1.4165,-1.4177,-1.419,-1.4207,-1.4217,-1.4232,-1.4248,-1.4252,-1.4283,-1.4292,-1.4305,-1.4315,-1.4336,-1.435,-1.4368,-1.4382,-1.4401,-1.4405,-1.4403,-1.4395,-1.4384,-1.4388,-1.4436,-1.4406,-1.4406,-1.4407,-1.4407,-1.4407,-1.414,-1.4143,-1.4164,-1.4177,-1.4192,-1.4205,-1.4211,-1.423,-1.4241,-1.426,-1.4275,-1.4286,-1.4306,-1.4332,-1.4345,-1.4354,-1.4363,-1.4361,-1.4361,-1.4359,-1.4355,-1.4383,-1.4357,-1.4357,-1.4358,-1.4358,-1.4358,0,-1.411,-1.4124,-1.4136,-1.4157,-1.4166,-1.4182,-1.42,-1.4207,-1.4216,-1.4233,-1.4245,-1.4259,-1.4272,-1.4295,-1.4309,-1.4312,-1.432,-1.4315,-1.4314,-1.4317,-1.4347,-1.4346,-1.4307,-1.4307,-1.4307,-1.4307,-1.4307,-1.4307,-1.4096,-1.4103,-1.4116,-1.4129,-1.4143,-1.4154,-1.4162,-1.4174,-1.4187,-1.4202,-1.4212,-1.4227,-1.4245,-1.4261,-1.4273,-1.4279,-1.4283,-1.4274,-1.4282,-1.431,-1.4315,-1.432,-1.4319,-1.4274,-1.4274,-1.4251,-1.4251,-1.4251]}]]